Simultaneous Nadir Overpasses (SNOs) Predictions

Prediction of SNOs between GOES-14 and AQUA Satellite Orbit:

Table of predicted SNOs for the next 14.0 days since TLE Epoch: 1/21/2023
Index Date Time (GOES-14) GOES-14 Lat,Lon AQUA Lat,Lon Distance(km) Time Diff (sec)
1 01/21/2023 08:36:06 -0.04,-104.64 -0.46,-102.75 215.81 80
2 01/21/2023 20:57:12 0.04,-104.27 -0.75,-107.85 407.11 80
3 01/23/2023 20:44:04 0.04,-104.29 -0.01,-104.65 40.25 80
4 01/25/2023 20:28:13 0.04,-104.32 0.67,-101.44 327.62 80
5 01/26/2023 08:49:13 -0.04,-104.69 0.37,-106.54 209.91 80
6 01/28/2023 08:38:41 -0.04,-104.72 -0.31,-103.32 158.95 80
7 01/28/2023 20:59:48 0.03,-104.37 -0.84,-108.43 462.09 80
8 01/30/2023 20:46:35 0.03,-104.39 -0.15,-105.21 93.00 80
9 02/01/2023 20:30:41 0.02,-104.41 0.53,-101.98 276.49 80
10 02/02/2023 08:51:42 -0.01,-104.78 0.46,-107.09 262.06 80
